OpenBCM V2.0.2 (Linux)

Packet Radio Mailbox

IZ3LSV

[San Dona' di P. JN]

 Login: GUEST





  
LU9DCE > KEPS     14.07.18 19:28l 255 Lines 12625 Bytes #999 (0) @ WW
BID : 8847_LU9DCE
Read: GUEST
Subj: SAT TLE 18
Path: IZ3LSV<IW8PGT<IR2UBX<EA2RCF<LU9DCE
Sent: 180618/1511Z 8847@LU9DCE.TOR.BA.ARG.SOAM BPQ6.0.16


            __    _  _  ___  ____   ___  ____    ____  ____  ____
           (  )  / )( \/ _ \(    \ / __)(  __)  (  _ \(  _ \/ ___)
           / (_/\) \/ (\__  )) D (( (__  ) _)    ) _ ( ) _ (\___ \
           \____/\____/(___/(____/ \___)(____)  (____/(____/(____/
               ESTACION DE PACKET RADIO - BUENOS AIRES (GF05OM)
                   BOLETINES INFORMATIVOS PROGRAMADOS (BIP)
                    LU9DCE@GMX.COM - RF 145070 @ 1200 BAUD
                      TELNET LU9DCE.DYNU.COM PORT 6300

+------------------------------------------------------------------------------+
OSCAR 7
1 07530U 74089B   18168.88457527 -.00000026  00000-0  11405-3 0  9996
2 07530 101.6867 136.1941 0012003 336.2841  49.3823 12.53633038994683
OSCAR 11 (UoSAT 2)
1 14781U 84021B   18169.14740081  .00000058  00000-0  13285-4 0  9992
2 14781  97.6489 205.3230 0010041  81.8681 278.3672 14.83011224844589
OSCAR 19 (LUSAT)
1 20442U 90005G   18169.39964533  .00000008  00000-0  19179-4 0  9992
2 20442  98.6101 107.8838 0012414 142.1062 218.0997 14.32897968484067
EYESAT A
1 22825U 93061C   18168.99032290 -.00000016  00000-0  11666-4 0  9998
2 22825  98.8625 145.1201 0008228 352.2981   7.8073 14.30032491289688
ITAMSAT
1 22826U 93061D   18168.93700360 -.00000006 +00000-0 +15402-4 0  9994
2 22826 098.8565 145.1036 0008552 341.4087 018.6781 14.30364138289610
RADIO ROSTO
1 23439U 94085A   18168.97305043 -.00000043 +00000-0 -14677-4 0  9990
2 23439 064.8183 347.5624 0157202 181.9101 337.4429 11.27567215966653
JAS 2
1 24278U 96046B   18168.60009806 -.00000054  00000-0 -22390-4 0  9992
2 24278  98.5175   7.3006 0351366 109.8054 254.1322 13.53084148 78299
TECHSAT 1B
1 25397U 98043D   18168.87492004 -.00000015 +00000-0 +12494-4 0  9999
2 25397 098.6498 109.3019 0002019 050.8918 309.2440 14.23647025035608
ISS (ZARYA)
1 25544U 98067A   18168.87695602 +.00001443 +00000-0 +28976-4 0  9995
2 25544 051.6417 015.2701 0002890 197.5331 352.8882 15.54189684118625
PCSAT
1 26931U 01043C   18168.91421040 -.00000050 +00000-0 +12553-4 0  9990
2 26931 067.0508 227.5336 0007887 274.4941 085.5259 14.30508092872584
SAUDISAT 1C
1 27607U 02058C   18168.95768612 -.00000028 +00000-0 +16776-4 0  9997
2 27607 064.5558 087.6797 0065373 328.2107 031.5055 14.75457378832944
CUTE-1
1 27844U 03031E   18169.01367123  .00000030  00000-0  33232-4 0  9990
2 27844  98.6862 177.6581 0010096  16.6985 343.4524 14.22118074776311
CUBESAT XI 4
1 27848U 03031J   18168.69172773 +.00000018 +00000-0 +28005-4 0  9990
2 27848 098.6947 177.7390 0010214 027.5371 332.6346 14.21721516776109
MOZHAYETS 4
1 27939U 03042A   18169.21063837  .00000052  00000-0  17848-4 0  9993
2 27939  97.9907 308.3183 0013887 140.9702 340.5681 14.66693550786967
CUBESAT XI 5
1 28895U 05043F   18168.89164204 +.00000076 +00000-0 +23336-4 0  9996
2 28895 097.9092 320.3186 0018169 069.4586 290.8564 14.63553807673749
CUTE-1.7+APD II
1 32785U 08021C   18168.85467079  .00000158  00000-0  22743-4 0  9992
2 32785  97.5468 181.0012 0014139  41.7500 318.4793 14.88130945549279
DELFI C3
1 32789U 08021G   18168.70990966 +.00001169 +00000-0 +84115-4 0  9990
2 32789 097.5116 223.5066 0010946 299.5075 060.5060 15.06085523551767
SEEDS
1 32791U 08021J   18168.74086624 +.00000280 +00000-0 +34030-4 0  9998
2 32791 097.5357 186.2531 0013978 023.4536 336.7318 14.90565532549512
YUBELEINY
1 32953U 08025A   18169.16606337  .00000007  00000-0 -22367-4 0  9996
2 32953  82.5029  12.0714 0018599 205.5652 154.4510 12.43083463456898
PRISM (HITOMI)
1 33493U 09002B   18169.17122345  .00000434  00000-0  44076-4 0  9999
2 33493  98.1331  71.3013 0014724 319.2577  40.7525 14.96238041510496
KKS-1 (KISEKI)
1 33499U 09002H   18168.92495969 +.00000074 +00000-0 +19085-4 0  9994
2 33499 098.3563 350.7153 0007999 294.0101 066.0269 14.75336155504861
SWISSCUBE
1 35932U 09051B   18168.91749630 +.00000104 +00000-0 +34543-4 0  9998
2 35932 098.5455 320.0952 0007258 198.9441 161.1487 14.56166765463502
BEESAT
1 35933U 09051C   18168.94466847 +.00000077 +00000-0 +28350-4 0  9996
2 35933 098.5494 321.6716 0005199 210.2192 149.8706 14.56269833463578
ITUPSAT 1
1 35935U 09051E   18168.93111864 +.00000083 +00000-0 +30153-4 0  9994
2 35935 098.5608 321.9107 0007577 208.5122 151.5661 14.55446387463401
XIWANG-1 (HOPE-1)
1 36122U 09072B   18168.92457642 -.00000031 +00000-0 +29304-4 0  9992
2 36122 100.0749 183.5255 0008245 109.2197 250.9810 13.16344910408643
TISAT 1
1 36799U 10035E   18168.92154453 +.00000422 +00000-0 +48988-4 0  9999
2 36799 098.1067 305.1563 0011902 199.9653 160.1100 14.90810585430068
JUGNU
1 37839U 11058B   18168.91907778 +.00000288 +00000-0 +11558-4 0  9999
2 37839 019.9628 032.8108 0018945 255.0011 220.8207 14.12621265345362
SRMSAT
1 37841U 11058D   18168.85546973 +.00000289 +00000-0 +13457-4 0  9992
2 37841 019.9726 082.4105 0011960 137.9480 273.1244 14.10608292344971
M-CUBED/EXP-1 PRIME
1 37855U 11061F   18168.87273176 +.00001148 +00000-0 +66184-4 0  9995
2 37855 101.7157 231.7575 0176591 080.2825 281.8282 15.04456362361283
HORYU 2
1 38340U 12025D   18168.95586199 +.00000139 +00000-0 +28550-4 0  9991
2 38340 098.3657 190.7032 0011009 202.2247 157.8485 14.75562342316816
STRAND 1
1 39090U 13009E   18168.80711915 -.00000002 +00000-0 +14774-4 0  9990
2 39090 098.5218 015.1846 0008146 300.1193 059.9184 14.35029284277917
SOMP
1 39134U 13015E   18169.18745874  .00000891  00000-0  51639-4 0  9995
2 39134  64.8630 123.6736 0012680 214.0446 145.9868 15.19179330285055
BEESAT 3
1 39135U 13015F   18168.68350032 +.00000718 +00000-0 +46387-4 0  9990
2 39135 064.8673 138.6662 0020415 236.7966 123.1202 15.16685992284333
BEESAT 2
1 39136U 13015G   18168.38954956  .00000568  00000-0  39368-4 0  9997
2 39136  64.8682 142.3998 0022443 237.2763 122.6199 15.16154668284624
CUBEBUG 1
1 39153U 13018D   18168.91696165 +.00000126 +00000-0 +23473-4 0  9993
2 39153 097.9792 264.1601 0015735 306.6232 053.3532 14.80402001277613
ZACUBE
1 39417U 13066B   18168.65252949 +.00000127 +00000-0 +22423-4 0  9993
2 39417 097.5868 197.2673 0059902 152.3217 208.1207 14.80941209246864
TRITON 1
1 39427U 13066M   18168.91387478 +.00000179 +00000-0 +36960-4 0  9997
2 39427 097.6413 164.7926 0112508 256.8909 101.9721 14.67673901244496
GOMX 1
1 39430U 13066Q   18168.92072819 +.00000156 +00000-0 +37580-4 0  9996
2 39430 097.6975 145.7409 0150806 328.7812 030.4496 14.59085784243078
HUMSAT D
1 39433U 13066T   18168.84486248  .00000440  00000-0  48535-4 0  9993
2 39433  97.6036 225.1995 0032544  81.1224 279.3678 14.91872827248537
CUBEBUG 2
1 39440U 13066AA  18168.95430315 +.00000149 +00000-0 +27873-4 0  9995
2 39440 097.6009 184.1459 0080151 191.9496 167.9815 14.75678703244835
FUNCUBE 1
1 39444U 13066AE  18168.85082946  .00000212  00000-0  32471-4 0  9992
2 39444  97.5877 198.9810 0059168 147.0988 213.3931 14.81721914245754
UWE-3
1 39446U 13066AG  18168.84039746  .00000156  00000-0  27493-4 0  9998
2 39446  97.5924 190.3446 0070438 172.3847 187.8452 14.78212667245218
SPROUT
1 39770U 14029E   18169.19933381  .00000594  00000-0  72726-4 0  9990
2 39770  97.8769 270.2357 0008573 196.1175 163.9784 14.86859909220510
UNISAT 6
1 40012U 14033C   18168.89312611 +.00000141 +00000-0 +28645-4 0  9998
2 40012 097.8083 045.1401 0057933 195.7438 164.1971 14.73825652214800
DUCHIFAT 1
1 40021U 14033M   18168.72992166 +.00000354 +00000-0 +42310-4 0  9990
2 40021 097.9162 087.4501 0012976 170.2546 189.8926 14.90315509217031
QB50P1
1 40025U 14033R   18168.81956460  .00000182  00000-0  25484-4 0  9993
2 40025  97.9056  84.2170 0012397 176.2779 183.8532 14.88721320216883
CHUBUSAT 1
1 40300U 14070C   18169.13699799  .00000465  00000-0  23634-4 0  9994
2 40300  97.3648 246.8128 0018347 258.7933 160.6159 15.21581207200425
NUDT-PHONESAT
1 40900U 15049B   18168.96302452 +.00001634 +00000-0 +75955-4 0  9996
2 40900 097.4406 177.2057 0014430 033.4396 326.7748 15.21333326152031
ZDPS 2A
1 40901U 15049C   18169.19889937  .00000759  00000-0  41629-4 0  9999
2 40901  97.4583 175.5295 0014828  40.0850 320.1474 15.17098731151815
ZDPS 2B
1 40902U 15049D   18169.17274456  .00000639  00000-0  35743-4 0  9999
2 40902  97.4483 173.5248 0014809  37.5009 322.7254 15.16892291151790
XW-2A
1 40903U 15049E   18169.21614222  .00001584  00000-0  41023-4 0  9992
2 40903  97.3839 204.0816 0015042  33.1148 327.1036 15.40511756153961
KAITUO 1A
1 40904U 15049F   18169.12939378  .00000538  00000-0  32230-4 0  9993
2 40904  97.4581 172.6959 0016108  39.4818  22.2369 15.15028195151649
OBJECT G
1 40905U 15049G   18169.20696437  .00000354  00000-0  23058-4 0  9993
2 40905  97.4584 170.8456 0016703  32.6827 327.5435 15.13979186151571
XW-2C
1 40906U 15049H   18169.17684528  .00000493  00000-0  29722-4 0  9996
2 40906  97.4595 172.6500 0015917  32.3008 327.9196 15.15199821151646
XW-2D
1 40907U 15049J   18169.19523294  .00000613  00000-0  35951-4 0  9996
2 40907  97.4570 172.3648 0015236  30.4269 329.7845 15.15351700151650
LILACSAT 2
1 40908U 15049K   18168.93861916 +.00000273 +00000-0 +18820-4 0  9992
2 40908 097.4681 171.4708 0016919 032.2632 327.9630 15.13516629151488
XW-2F
1 40910U 15049M   18168.94510768 +.00000807 +00000-0 +44676-4 0  9993
2 40910 097.4570 173.4356 0015878 026.8984 333.3069 15.16547074151692
XW-2B
1 40911U 15049N   18168.94863437 +.00000515 +00000-0 +30780-4 0  9995
2 40911 097.4604 172.6609 0015192 031.7987 328.4160 15.15294796151517
KAITUO 1B
1 40912U 15049P   18169.20371844  .00001040  00000-0  53208-4 0  9996
2 40912  97.4496 176.5165 0015913  14.2888  52.9626 15.18767877151822
TIANWANG 1C (TW-1C)
1 40926U 15051B   18168.85106044  .00005536  00000-0  10372-3 0  9990
2 40926  97.1824 211.1894 0007591 272.8764 173.7645 15.49059480153410
